星链-33913 (STARLINK-33913)

导读

STARLINK-33913是美国太空探索技术公司SpaceX于2025年8月14日发射的星链项目卫星,属于第二代星链(Gen2)星座的组成部分。它运行在近地轨道,配备先进数字相控阵天线与激光星间链路,可提供高带宽低延迟的全球卫星互联网服务,覆盖偏远区域、海洋空域,助力消除数字鸿沟,同时该卫星也按SpaceX设计,退役后会再入大气层完全销毁,以减少太空碎片。

Basic Information
目录编号:
65215
目录名称:
STARLINK-33913
国际标识:
2025-176T
轨道中心:
EARTH
卫星名称:
星链-33913
卫星全名:
星链-33913 (STARLINK-33913)
卫星状态:
在轨 (已飞行386 天)
发射日期:
2025-08-14 UTC
国别 :
美国 (US)
星等 :
--
Orbit Information
数据来源 国际轨道数据 AOE轨道数据
星历时间 2026-09-04T03:40:55+0800
10小时前
查看轨道信息
2026-09-03T18:00:00+0800
20小时前
查看轨道信息
半长轴 6840.832km 6840.883km
偏心率 0.0001173 0.0000738
轨道倾角 53.160° 53.156°
近地点辐角 96.451° 89.353°
升交点赤经 43.865° 45.755°
平近点角 263.663° 201.114°
近地点 461.892km 462.241km
远地点 463.498km 463.251km
周期 93.848分钟 93.849分钟
每日圈数 15.344031 15.343859
Detailed Information
固有亮度:
5
最大亮度:
2.5
卫星平台:
Starlink V1.0
覆盖范围:
全球
运营商:
太空探索技术公司
运营商所在国:
美国
制造商(研发单位):
太空探索技术公司
制造商所在国:
美国
使用方式:
暂无
Satellite Introduction
Starlink 计划是 SpaceX 推出的全球卫星互联网项目,通过发射低轨道卫星,为全球尤其是偏远地区提供高速、低延迟的互联网服务。自 2019 年起,Starlink 已部署数千颗卫星,旨在缩小全球数字鸿沟,推动互联网普及。该项目还为军事、航空等行业提供通信支持,带来广泛经济效益。
2D Orbit Map
3D Orbit Map
Orbit Altitude Analysis Chart
Orbit Inclination Analysis Chart
Orbit Comprehensive Analysis Chart
View Comprehensive Chart
Conjunction Data List
Event ID Objects TCA Miss Dist (km) Collision Risk Probability Collision Risk Index (CRI) Action
CDM_260903-083906-282506-521521
2026-09-03T
08:39:04+0000
0.800 km
远距离
4.922964E-5 中风险 0.69
CDM_260904-052005-900706-521521
2026-09-04T
05:20:32+0000
0.892 km
远距离
2.462258E-5 中风险 0.63
CDM_260904-120006-036306-521521
2026-09-04T
12:00:44+0000
1.013 km
极远距离
2.243432E-5 中风险 0.62
CDM_260903-204405-900706-521521
2026-09-03T
20:44:41+0000
1.137 km
极远距离
1.065957E-5 中风险 0.56
CDM_260904-133406-036306-521521
2026-09-04T
13:34:31+0000
2.055 km
极远距离
2.342036E-6 低风险 0.42
CDM_260905-021005-174006-521521
2026-09-05T
02:10:18+0000
2.117 km
极远距离
2.208428E-6 低风险 0.42
CDM_260905-053103-279106-521521
SEEDS (32791)
2026-09-05T
05:31:29+0000
2.303 km
极远距离
2.013118E-6 低风险 0.41
CDM_260904-210206-094206-521521
2026-09-04T
21:02:51+0000
1.594 km
极远距离
1.816357E-6 低风险 0.4
CDM_260904-102606-036306-521521
2026-09-04T
10:26:57+0000
2.671 km
极远距离
1.389752E-6 低风险 0.38
CDM_260827-183405-872506-521521
2026-08-27T
18:34:09+0000
2.755 km
极远距离
1.026798E-6 低风险 0.35